Content
SEND FEEDBACK

Daily
Averages
Monthly
Summary
United States of America

WRIGHTSVILLE BEACH, NORTH CAROLINA


Home > North America > United States > North Carolina
Elevation: 25 feet     Latitude: 34 16N     Longitude: 077 54W

WEATHER
 
SELECT A DAY
Number of Records: 209,043;   Date Range: 1/1/95 - 9/3/14
 
SHARE

PRINT THIS DATA

[ ← Previous Day ]
WEATHER ALMANAC - JANUARY 6, 2013
[ Next Day → ]
[ °C ]   °F
Weather ElementAverageHighLow
Temperature47.4 °F50 °F (10:53 am)41 °F (1:53 am)
Dewpoint41.1 °F44.6 °F (8:44 pm)37 °F (1:53 am)
Humidity79.4 %93 % (5:53 am)66 % (12:53 pm)
Barometer30.16 in30.26 in (1:53 am)30.08 in (6:53 pm)
Wind Speed2.9 mph8.1 mph (11:51 pm)
Weather ElementAverage
Visibility10 mi
Wind DirectionSSE (150.7 °)

Weather ElementTotal
Precipitation0.01 in
Heating Degree Days19.5 (Base 65)
Averaged from 27 records on January 6, 2013
WEATHER CONDITIONS BREAKOUT
WIND DIRECTION BREAKOUT
WEATHER BY HOUR - JANUARY 6, 2013
[ °C ]   °F
Local TimeTemperatureDewpointHumidityBarometerVisibilityWind DirectionWind SpeedGust SpeedPrecipitationEventsConditions
1:53 AM41.0 °F37.0 °F86 %30.26 in10.0 miCalmClear
2:53 AM42.1 °F37.0 °F82 %30.24 in10.0 miCalmMostly Cloudy
3:53 AM43.0 °F39.9 °F89 %30.24 in10.0 miCalm0.01 inRainLight Rain
4:53 AM43.0 °F39.9 °F89 %30.22 in10.0 miCalm0.00 inOvercast
5:53 AM43.0 °F41.0 °F93 %30.22 in10.0 miCalmOvercast
6:53 AM44.1 °F41.0 °F89 %30.22 in10.0 miCalmOvercast
7:53 AM45.0 °F41.0 °F86 %30.21 in10.0 miCalmOvercast
8:53 AM46.0 °F41.0 °F83 %30.22 in10.0 miCalmOvercast
9:53 AM46.9 °F42.1 °F83 %30.24 in10.0 miCalmOvercast
10:53 AM50.0 °F39.9 °F68 %30.22 in10.0 miNNW (330°)3.5 mphOvercast
11:53 AM50.0 °F39.9 °F68 %30.19 in10.0 miWNW (300°)5.8 mphOvercast
12:53 PM50.0 °F39.2 °F66 %30.16 in10.0 miNW (320°)4.6 mphOvercast
1:53 PM48.9 °F39.0 °F69 %30.14 in10.0 miCalmOvercast
2:53 PM50.0 °F39.9 °F68 %30.13 in10.0 miCalmOvercast
3:53 PM50.0 °F39.9 °F68 %30.12 in10.0 miSSE (150°)3.5 mphOvercast
4:53 PM50.0 °F41.0 °F71 %30.11 in10.0 miCalmOvercast
5:53 PM48.9 °F42.1 °F77 %30.10 in10.0 miCalmOvercast
6:53 PM50.0 °F42.1 °F74 %30.08 in10.0 miSSE (160°)4.6 mphOvercast
7:53 PM50.0 °F43.0 °F77 %30.09 in10.0 miSW (230°)4.6 mph0.00 inOvercast
8:44 PM50.0 °F44.6 °F82 %30.11 in10.0 miNW (310°)6.9 mph0.00 inOvercast
8:53 PM50.0 °F43.0 °F77 %30.11 in10.0 miNW (320°)5.8 mph0.00 inOvercast
9:39 PM48.2 °F42.8 °F82 %30.13 in10.0 miNW (320°)5.8 mphOvercast
9:53 PM48.9 °F43.0 °F80 %30.12 in10.0 miNNW (330°)5.8 mphOvercast
10:53 PM48.0 °F43.0 °F83 %30.13 in10.0 miNW (320°)4.6 mphOvercast
11:08 PM48.2 °F42.8 °F82 %30.13 in10.0 miNW (320°)6.9 mphOvercast
11:51 PM46.4 °F42.8 °F87 %30.15 in10.0 miNNW (330°)8.1 mphMostly Cloudy
11:53 PM46.9 °F43.0 °F86 %30.15 in10.0 miNNW (330°)6.9 mphMostly Cloudy
Hourly data recorded from KILM, located miles away from Wrightsville Beach, North Carolina







STORIES FROM OUR PARTNERS